Location: Im Fang
(46.6019°N, 7.2397°E)
Time: 13:56:58
(UTC+00:00)

Radarsat Rocket - Pass Details

Date: 08 December 2019
Orbit: 933 x 1492 km, 100.6° (Epoch: 22 January)

Event Time Altitude Azimuth Distance (km) Brightness Sun altitude
Rises 05:42:29 0° 16° (NNE) 3,652 7.0 -13.0°
Reaches altitude 10° 05:44:50 10° 17° (NNE) 2,737 6.3 -12.7°
Maximum altitude 05:50:57 90° 93° (E) 1,052 4.2 -11.7°
Drops below altitude 10° 05:57:45 10° 199° (SSW) 3,029 6.6 -10.6°
Sets 06:00:28 0° 200° (SSW) 4,066 7.3 -10.2°
